| time (UTC) | temp F | wind direction | speed knots | gust knots | rain 1hr in | rain 24hr in | rain mn in | humidity % | barometer mb |
| 20260507211731 | 59 | 227 | 0.9 | 0.9 | 0.00 | 0.00 | 0.00 | 40 | 1009.7 |
| 20260507211228 | 59 | 228 | 0.9 | 3.5 | 0.00 | 0.00 | 0.00 | 41 | 1009.7 |
| 20260507210725 | 61 | 214 | 1.7 | 2.6 | 0.00 | 0.00 | 0.00 | 42 | 1009.3 |
| 20260507210221 | 58 | 208 | 0.9 | 1.7 | 0.00 | 0.00 | 0.00 | 43 | 1009.6 |
| 20260507205718 | 58 | 208 | 2.6 | 6.1 | 0.00 | 0.00 | 0.00 | 43 | 1009.5 |
| 20260507205214 | 59 | 190 | 4.3 | 7.0 | 0.00 | 0.00 | 0.00 | 42 | 1009.6 |
| 20260507204711 | 60 | 227 | 0.9 | 2.6 | 0.00 | 0.00 | 0.00 | 43 | 1009.7 |
| 20260507204209 | 60 | 229 | 0.0 | 3.5 | 0.00 | 0.00 | 0.00 | 41 | 1009.4 |
| 20260507203707 | 59 | 234 | 0.0 | 5.2 | 0.00 | 0.00 | 0.00 | 42 | 1009.5 |
| 20260507203204 | 59 | 186 | 4.3 | 7.8 | 0.00 | 0.00 | 0.00 | 43 | 1009.5 |
| 20260507202659 | 58 | 223 | 0.0 | 6.1 | 0.00 | 0.00 | 0.00 | 43 | 1009.4 |
| 20260507202155 | 60 | 226 | 1.7 | 6.1 | 0.00 | 0.00 | 0.00 | 42 | 1009.5 |
| 20260507201650 | 60 | 235 | 0.0 | 3.5 | 0.00 | 0.00 | 0.00 | 43 | 1009.5 |
| 20260507201148 | 59 | 172 | 5.2 | 6.1 | 0.00 | 0.00 | 0.00 | 41 | 1009.7 |
| 20260507200644 | 60 | 223 | 0.9 | 8.7 | 0.00 | 0.00 | 0.00 | 42 | 1009.9 |
| 20260507200140 | 60 | 198 | 3.5 | 5.2 | 0.00 | 0.00 | 0.00 | 41 | 1009.8 |
| 20260507195637 | 61 | 229 | 1.7 | 3.5 | 0.00 | 0.00 | 0.00 | 43 | 1009.8 |
| 20260507195134 | 61 | 230 | 0.9 | 2.6 | 0.00 | 0.00 | 0.00 | 43 | 1009.7 |
| 20260507194631 | 60 | 192 | 2.6 | 6.1 | 0.00 | 0.00 | 0.00 | 43 | 1009.8 |
| 20260507194126 | 62 | 193 | 3.5 | 5.2 | 0.00 | 0.00 | 0.00 | 45 | 1009.8 |
| 20260507193623 | 61 | 233 | 0.0 | 0.9 | 0.00 | 0.00 | 0.00 | 42 | 1009.8 |
| 20260507193120 | 61 | 207 | 3.5 | 5.2 | 0.00 | 0.00 | 0.00 | 42 | 1010.0 |
| 20260507192617 | 60 | 215 | 3.5 | 8.7 | 0.00 | 0.00 | 0.00 | 43 | 1010.1 |
| 20260507192114 | 59 | 223 | 1.7 | 1.7 | 0.00 | 0.00 | 0.00 | 44 | 1010.0 |
| 20260507191609 | 59 | 229 | 0.9 | 1.7 | 0.00 | 0.00 | 0.00 | 45 | 1009.7 |
| 20260507191106 | 59 | 220 | 1.7 | 2.6 | 0.00 | 0.00 | 0.00 | 46 | 1010.0 |
| 20260507190604 | 60 | 201 | 0.0 | 1.7 | 0.00 | 0.00 | 0.00 | 45 | 1010.1 |
| 20260507185600 | 58 | 227 | 0.9 | 1.7 | 0.00 | 0.00 | 0.00 | 45 | 1010.4 |
| 20260507185056 | 58 | 206 | 2.6 | 2.6 | 0.00 | 0.00 | 0.00 | 46 | 1010.2 |
| 20260507184555 | 58 | 227 | 2.6 | 7.0 | 0.00 | 0.00 | 0.00 | 46 | 1010.3 |
| 20260507184052 | 60 | 223 | 0.0 | 1.7 | 0.00 | 0.00 | 0.00 | 48 | 1010.2 |
| 20260507183548 | 60 | 234 | 0.0 | 5.2 | 0.00 | 0.00 | 0.00 | 44 | 1010.3 |
| 20260507183045 | 61 | 228 | 1.7 | 6.1 | 0.00 | 0.00 | 0.00 | 45 | 1010.2 |
| 20260507182542 | 61 | 227 | 0.9 | 2.6 | 0.00 | 0.00 | 0.00 | 45 | 1010.3 |
| 20260507182037 | 60 | 230 | 0.9 | 2.6 | 0.00 | 0.00 | 0.00 | 46 | 1010.3 |
| 20260507181535 | 59 | 233 | 0.9 | 1.7 | 0.00 | 0.00 | 0.00 | 48 | 1010.5 |
| 20260507181031 | 59 | 222 | 0.9 | 1.7 | 0.00 | 0.00 | 0.00 | 47 | 1010.4 |
| 20260507180527 | 59 | 210 | 1.7 | 3.5 | 0.00 | 0.00 | 0.00 | 45 | 1010.3 |
| 20260507180025 | 59 | 215 | 0.9 | 3.5 | 0.00 | 0.00 | 0.00 | 47 | 1010.5 |
| 20260507175521 | 59 | 222 | 0.0 | 0.0 | 0.00 | 0.00 | 0.00 | 45 | 1010.4 |
| 20260507175018 | 59 | 210 | 2.6 | 2.6 | 0.00 | 0.00 | 0.00 | 45 | 1010.6 |
| 20260507174515 | 59 | 222 | 1.7 | 2.6 | 0.00 | 0.00 | 0.00 | 44 | 1010.6 |
| 20260507174013 | 60 | 219 | 0.9 | 3.5 | 0.00 | 0.00 | 0.00 | 46 | 1010.7 |
| 20260507173509 | 59 | 248 | 1.7 | 6.1 | 0.00 | 0.00 | 0.00 | 43 | 1011.0 |
| 20260507173007 | 58 | 232 | 0.0 | 2.6 | 0.00 | 0.00 | 0.00 | 48 | 1010.7 |
| 20260507172503 | 57 | 240 | 0.0 | 1.7 | 0.00 | 0.00 | 0.00 | 47 | 1010.9 |
| 20260507171959 | 57 | 187 | 6.1 | 7.0 | 0.00 | 0.00 | 0.00 | 46 | 1011.0 |
| 20260507171455 | 60 | 228 | 0.0 | 1.7 | 0.00 | 0.00 | 0.00 | 42 | 1011.2 |
| 20260507170953 | 59 | 223 | 2.6 | 6.1 | 0.00 | 0.00 | 0.00 | 44 | 1011.0 |
| 20260507170449 | 59 | 196 | 3.5 | 7.0 | 0.00 | 0.00 | 0.00 | 45 | 1010.9 |
| 20260507165945 | 58 | 224 | 1.7 | 3.5 | 0.00 | 0.00 | 0.00 | 46 | 1011.2 |
| 20260507165442 | 57 | 221 | 0.9 | 3.5 | 0.00 | 0.00 | 0.00 | 47 | 1011.2 |
| 20260507164938 | 58 | 221 | 0.9 | 3.5 | 0.00 | 0.00 | 0.00 | 47 | 1011.3 |
| 20260507164435 | 58 | 210 | 2.6 | 3.5 | 0.00 | 0.00 | 0.00 | 48 | 1011.3 |
| 20260507163931 | 59 | 219 | 0.9 | 2.6 | 0.00 | 0.00 | 0.00 | 46 | 1011.3 |
| 20260507163429 | 60 | 261 | 0.9 | 3.5 | 0.00 | 0.00 | 0.00 | 47 | 1011.4 |
| 20260507162926 | 60 | 170 | 3.5 | 6.1 | 0.00 | 0.00 | 0.00 | 45 | 1011.4 |
| 20260507162421 | 59 | 251 | 0.9 | 2.6 | 0.00 | 0.00 | 0.00 | 46 | 1011.6 |
| 20260507161919 | 58 | 188 | 7.0 | 8.7 | 0.00 | 0.00 | 0.00 | 45 | 1011.5 |
| 20260507161414 | 57 | 212 | 3.5 | 7.8 | 0.00 | 0.00 | 0.00 | 44 | 1011.7 |
| 20260507160912 | 59 | 198 | 2.6 | 5.2 | 0.00 | 0.00 | 0.00 | 41 | 1011.7 |
| 20260507160408 | 57 | 200 | 2.6 | 3.5 | 0.00 | 0.00 | 0.00 | 50 | 1011.6 |
| 20260507155904 | 56 | 179 | 3.5 | 6.1 | 0.00 | 0.00 | 0.00 | 48 | 1011.5 |
| 20260507155359 | 55 | 222 | 2.6 | 5.2 | 0.00 | 0.00 | 0.00 | 47 | 1011.7 |
| 20260507154857 | 57 | 247 | 0.0 | 3.5 | 0.00 | 0.00 | 0.00 | 48 | 1011.7 |
| 20260507154354 | 56 | 268 | 0.9 | 6.1 | 0.00 | 0.00 | 0.00 | 53 | 1011.7 |
| 20260507153851 | 56 | 229 | 0.0 | 3.5 | 0.00 | 0.00 | 0.00 | 51 | 1011.9 |
| 20260507153347 | 56 | 222 | 2.6 | 11.3 | 0.00 | 0.00 | 0.00 | 49 | 1012.1 |
| 20260507152844 | 56 | 219 | 0.9 | 1.7 | 0.00 | 0.00 | 0.00 | 52 | 1012.0 |
| 20260507152340 | 55 | 209 | 3.5 | 5.2 | 0.00 | 0.00 | 0.00 | 50 | 1012.3 |
| 20260507151836 | 54 | 226 | 0.0 | 0.9 | 0.00 | 0.00 | 0.00 | 50 | 1012.1 |
| 20260507151332 | 55 | 217 | 2.6 | 2.6 | 0.00 | 0.00 | 0.00 | 49 | 1012.3 |
| 20260507150830 | 56 | 221 | 0.9 | 5.2 | 0.00 | 0.00 | 0.00 | 51 | 1012.3 |
| 20260507150326 | 56 | 224 | 0.0 | 1.7 | 0.00 | 0.00 | 0.00 | 50 | 1012.4 |
| 20260507145822 | 55 | 200 | 1.7 | 5.2 | 0.00 | 0.00 | 0.00 | 57 | 1012.5 |
| 20260507145319 | 55 | 243 | 0.0 | 1.7 | 0.00 | 0.00 | 0.00 | 54 | 1012.5 |
| 20260507144816 | 55 | 229 | 0.0 | 2.6 | 0.00 | 0.00 | 0.00 | 52 | 1012.5 |
| 20260507144313 | 56 | 228 | 1.7 | 5.2 | 0.00 | 0.00 | 0.00 | 52 | 1012.5 |
| 20260507143810 | 56 | 223 | 0.9 | 1.7 | 0.00 | 0.00 | 0.00 | 54 | 1012.8 |
| 20260507143307 | 55 | 201 | 3.5 | 3.5 | 0.00 | 0.00 | 0.00 | 54 | 1012.8 |
| 20260507142803 | 56 | 253 | 0.9 | 3.5 | 0.00 | 0.00 | 0.00 | 59 | 1012.9 |
| 20260507142259 | 56 | 226 | 0.9 | 3.5 | 0.00 | 0.00 | 0.00 | 54 | 1012.7 |
| 20260507141756 | 55 | 238 | 1.7 | 3.5 | 0.00 | 0.00 | 0.00 | 57 | 1012.9 |
| 20260507141254 | 54 | 226 | 1.7 | 6.1 | 0.00 | 0.00 | 0.00 | 59 | 1013.1 |
| 20260507140749 | 55 | 215 | 2.6 | 3.5 | 0.00 | 0.00 | 0.00 | 62 | 1013.2 |
| 20260507140247 | 54 | 257 | 3.5 | 5.2 | 0.00 | 0.00 | 0.00 | 57 | 1013.2 |
| 20260507135744 | 53 | 241 | 1.7 | 1.7 | 0.00 | 0.00 | 0.00 | 60 | 1013.1 |
| 20260507135241 | 53 | 221 | 0.0 | 1.7 | 0.00 | 0.00 | 0.00 | 60 | 1013.1 |
| 20260507134737 | 53 | 220 | 1.7 | 7.0 | 0.00 | 0.00 | 0.00 | 61 | 1013.3 |
| 20260507134234 | 52 | 201 | 2.6 | 5.2 | 0.00 | 0.00 | 0.00 | 64 | 1013.3 |
| 20260507133730 | 52 | 233 | 0.9 | 1.7 | 0.00 | 0.00 | 0.00 | 60 | 1013.3 |
| 20260507133227 | 51 | 251 | 0.0 | 2.6 | 0.00 | 0.00 | 0.00 | 64 | 1013.4 |
| 20260507132724 | 51 | 226 | 1.7 | 2.6 | 0.00 | 0.00 | 0.00 | 63 | 1013.5 |
| 20260507132221 | 51 | 252 | 0.0 | 2.6 | 0.00 | 0.00 | 0.00 | 62 | 1013.7 |
| 20260507131717 | 51 | 282 | 1.7 | 3.5 | 0.00 | 0.00 | 0.00 | 64 | 1013.2 |
| 20260507131215 | 51 | 251 | 0.9 | 3.5 | 0.00 | 0.00 | 0.00 | 65 | 1013.5 |
| 20260507130711 | 51 | 226 | 0.0 | 1.7 | 0.00 | 0.00 | 0.00 | 62 | 1013.4 |
| 20260507130209 | 51 | 230 | 0.9 | 1.7 | 0.00 | 0.00 | 0.00 | 66 | 1013.3 |
| 20260507125708 | 51 | 254 | 1.7 | 1.7 | 0.00 | 0.00 | 0.00 | 62 | 1013.4 |
| 20260507125205 | 50 | 251 | 0.0 | 1.7 | 0.00 | 0.00 | 0.00 | 67 | 1013.7 |
| 20260507124701 | 50 | 237 | 0.0 | 0.9 | 0.00 | 0.00 | 0.00 | 66 | 1013.4 |
| 20260507124159 | 50 | 245 | 0.0 | 1.7 | 0.00 | 0.00 | 0.00 | 65 | 1013.4 |
| 20260507123657 | 51 | 246 | 0.9 | 0.9 | 0.00 | 0.00 | 0.00 | 70 | 1013.5 |
| 20260507123154 | 50 | 224 | 0.0 | 0.0 | 0.00 | 0.00 | 0.00 | 73 | 1013.4 |
| 20260507122649 | 51 | 224 | 0.0 | 0.0 | 0.00 | 0.00 | 0.00 | 71 | 1013.6 |
| 20260507122145 | 49 | 224 | 0.0 | 0.0 | 0.00 | 0.00 | 0.00 | 75 | 1013.3 |
| 20260507121641 | 48 | 224 | 0.0 | 0.0 | 0.00 | 0.00 | 0.00 | 77 | 1013.5 |
| 20260507121137 | 48 | 224 | 0.0 | 0.0 | 0.00 | 0.00 | 0.00 | 79 | 1013.6 |
| 20260507120633 | 48 | 224 | 0.0 | 0.0 | 0.00 | 0.00 | 0.00 | 74 | 1013.6 |
| 20260507120130 | 46 | 224 | 0.0 | 0.0 | 0.00 | 0.00 | 0.00 | 80 | 1013.4 |
| 20260507115627 | 45 | 225 | 0.0 | 0.0 | 0.00 | 0.00 | 0.00 | 81 | 1013.6 |
| 20260507115122 | 45 | 225 | 0.0 | 0.0 | 0.00 | 0.00 | 0.00 | 82 | 1013.4 |
| 20260507114618 | 45 | 225 | 0.0 | 0.0 | 0.00 | 0.00 | 0.00 | 81 | 1013.5 |
| 20260507114116 | 44 | 225 | 0.0 | 0.0 | 0.00 | 0.00 | 0.00 | 81 | 1013.6 |
| 20260507113613 | 44 | 225 | 0.0 | 0.0 | 0.00 | 0.00 | 0.00 | 79 | 1013.4 |
| 20260507113110 | 45 | 225 | 0.0 | 0.0 | 0.00 | 0.00 | 0.00 | 77 | 1013.3 |
| 20260507112608 | 44 | 225 | 0.0 | 0.0 | 0.00 | 0.00 | 0.00 | 80 | 1013.4 |
| 20260507112104 | 42 | 225 | 0.0 | 0.0 | 0.00 | 0.00 | 0.00 | 83 | 1013.4 |
| 20260507111602 | 40 | 225 | 0.0 | 0.0 | 0.00 | 0.00 | 0.00 | 92 | 1013.3 |
| 20260507111058 | 39 | 225 | 0.0 | 0.0 | 0.00 | 0.00 | 0.00 | 99 | 1013.3 |
| 20260507110554 | 38 | 225 | 0.0 | 0.0 | 0.00 | 0.00 | 0.00 | 99 | 1013.2 |
| 20260507110051 | 36 | 225 | 0.0 | 0.0 | 0.00 | 0.00 | 0.00 | 99 | 1013.2 |
| 20260507105548 | 35 | 225 | 0.0 | 0.0 | 0.00 | 0.00 | 0.00 | 99 | 1013.3 |
| 20260507105044 | 33 | 225 | 0.0 | 0.0 | 0.00 | 0.00 | 0.00 | 99 | 1013.1 |
| 20260507104542 | 33 | 225 | 0.0 | 0.0 | 0.00 | 0.00 | 0.00 | 99 | 1012.9 |
| 20260507104038 | 33 | 225 | 0.0 | 0.0 | 0.00 | 0.00 | 0.00 | 99 | 1012.9 |
| 20260507103534 | 33 | 225 | 0.0 | 0.0 | 0.00 | 0.00 | 0.00 | 99 | 1012.9 |
| 20260507103031 | 33 | 225 | 0.0 | 0.0 | 0.00 | 0.00 | 0.00 | 99 | 1012.9 |
| 20260507102527 | 33 | 225 | 0.0 | 0.0 | 0.00 | 0.00 | 0.00 | 99 | 1013.1 |
| 20260507102023 | 32 | 225 | 0.0 | 0.0 | 0.00 | 0.00 | 0.00 | 99 | 1013.1 |
| 20260507101519 | 32 | 225 | 0.0 | 0.0 | 0.00 | 0.00 | 0.00 | 99 | 1012.8 |
| 20260507101016 | 32 | 225 | 0.0 | 0.0 | 0.00 | 0.00 | 0.00 | 99 | 1012.8 |
| 20260507100513 | 32 | 225 | 0.0 | 0.0 | 0.00 | 0.00 | 0.00 | 99 | 1013.1 |
| 20260507100011 | 32 | 225 | 0.0 | 0.0 | 0.00 | 0.00 | 0.00 | 99 | 1013.0 |
| 20260507095509 | 32 | 225 | 0.0 | 0.0 | 0.00 | 0.00 | 0.00 | 99 | 1012.9 |
| 20260507095005 | 33 | 225 | 0.0 | 0.0 | 0.00 | 0.00 | 0.00 | 99 | 1012.7 |
| 20260507094501 | 33 | 225 | 0.0 | 0.0 | 0.00 | 0.00 | 0.00 | 99 | 1013.1 |
| 20260507093958 | 33 | 225 | 0.0 | 0.0 | 0.00 | 0.00 | 0.00 | 99 | 1013.0 |
| 20260507093455 | 34 | 225 | 0.0 | 0.0 | 0.00 | 0.00 | 0.00 | 99 | 1013.2 |
| 20260507092954 | 34 | 225 | 0.0 | 0.0 | 0.00 | 0.00 | 0.00 | 99 | 1013.1 |
| 20260507092450 | 33 | 225 | 0.0 | 0.0 | 0.00 | 0.00 | 0.00 | 99 | 1013.0 |
| 20260507091947 | 34 | 225 | 0.0 | 0.0 | 0.00 | 0.00 | 0.00 | 99 | 1013.0 |
| 20260507091444 | 34 | 225 | 0.0 | 0.0 | 0.00 | 0.00 | 0.00 | 99 | 1013.2 |
| 20260507090940 | 35 | 225 | 0.0 | 0.0 | 0.00 | 0.00 | 0.00 | 99 | 1013.0 |
| 20260507090436 | 35 | 225 | 0.0 | 0.0 | 0.00 | 0.00 | 0.00 | 99 | 1013.0 |
| 20260507085932 | 35 | 225 | 0.0 | 0.0 | 0.00 | 0.00 | 0.00 | 99 | 1013.1 |
| 20260507085430 | 35 | 225 | 0.0 | 0.0 | 0.00 | 0.00 | 0.00 | 99 | 1013.1 |
| 20260507084927 | 35 | 225 | 0.0 | 0.0 | 0.00 | 0.00 | 0.00 | 99 | 1012.8 |
| 20260507084424 | 34 | 225 | 0.0 | 0.0 | 0.00 | 0.00 | 0.00 | 99 | 1013.1 |
| 20260507083921 | 34 | 225 | 0.0 | 0.0 | 0.00 | 0.00 | 0.00 | 99 | 1013.2 |
| 20260507083417 | 35 | 225 | 0.0 | 0.0 | 0.00 | 0.00 | 0.00 | 99 | 1013.2 |
| 20260507082913 | 35 | 225 | 0.0 | 0.0 | 0.00 | 0.00 | 0.00 | 99 | 1013.0 |
| 20260507082409 | 35 | 225 | 0.0 | 0.0 | 0.00 | 0.00 | 0.00 | 99 | 1013.0 |
| 20260507081906 | 36 | 225 | 0.0 | 0.0 | 0.00 | 0.00 | 0.00 | 99 | 1012.8 |
| 20260507081402 | 36 | 225 | 0.0 | 0.0 | 0.00 | 0.00 | 0.00 | 99 | 1012.9 |
| 20260507080859 | 36 | 225 | 0.0 | 0.0 | 0.00 | 0.00 | 0.00 | 99 | 1012.9 |
| 20260507080355 | 36 | 225 | 0.0 | 0.0 | 0.00 | 0.00 | 0.00 | 99 | 1013.1 |
| 20260507075851 | 36 | 225 | 0.0 | 0.0 | 0.00 | 0.00 | 0.00 | 98 | 1013.1 |
| 20260507075347 | 36 | 225 | 0.0 | 0.0 | 0.00 | 0.00 | 0.00 | 98 | 1013.0 |
| 20260507074843 | 36 | 225 | 0.0 | 0.0 | 0.00 | 0.00 | 0.00 | 98 | 1013.0 |
| 20260507074341 | 37 | 225 | 0.0 | 0.0 | 0.00 | 0.00 | 0.00 | 98 | 1013.2 |
| 20260507073838 | 37 | 225 | 0.0 | 0.0 | 0.00 | 0.00 | 0.00 | 97 | 1013.0 |
| 20260507073334 | 37 | 225 | 0.0 | 0.0 | 0.00 | 0.00 | 0.00 | 97 | 1013.1 |
| 20260507072832 | 37 | 225 | 0.0 | 0.0 | 0.00 | 0.00 | 0.00 | 97 | 1013.1 |
| 20260507072329 | 37 | 225 | 0.0 | 0.0 | 0.00 | 0.00 | 0.00 | 97 | 1013.3 |
| 20260507071827 | 38 | 225 | 0.0 | 0.0 | 0.00 | 0.00 | 0.00 | 97 | 1013.2 |
| 20260507071324 | 38 | 225 | 0.0 | 0.0 | 0.00 | 0.00 | 0.00 | 97 | 1013.1 |
| 20260507070820 | 38 | 225 | 0.0 | 0.0 | 0.00 | 0.00 | 0.00 | 96 | 1013.3 |
| 20260507070317 | 38 | 225 | 0.0 | 0.0 | 0.00 | 0.00 | 0.00 | 96 | 1013.0 |
| 20260507065814 | 39 | 225 | 0.0 | 0.0 | 0.00 | 0.00 | 0.00 | 96 | 1013.2 |
| 20260507065310 | 39 | 225 | 0.0 | 0.0 | 0.00 | 0.00 | 0.00 | 95 | 1013.3 |
| 20260507064808 | 39 | 225 | 0.0 | 0.0 | 0.00 | 0.00 | 0.00 | 95 | 1013.1 |
| 20260507064306 | 40 | 225 | 0.0 | 0.0 | 0.00 | 0.00 | 0.00 | 95 | 1013.1 |
| 20260507063804 | 40 | 225 | 0.0 | 0.0 | 0.00 | 0.00 | 0.00 | 94 | 1013.1 |
| 20260507063301 | 41 | 225 | 0.0 | 0.0 | 0.00 | 0.00 | 0.00 | 92 | 1013.2 |
| 20260507062757 | 41 | 225 | 0.0 | 0.0 | 0.00 | 0.00 | 0.00 | 90 | 1013.3 |
| 20260507062254 | 42 | 225 | 0.0 | 0.0 | 0.00 | 0.00 | 0.00 | 89 | 1013.1 |
| 20260507061753 | 42 | 225 | 0.0 | 0.0 | 0.00 | 0.00 | 0.00 | 92 | 1013.2 |
| 20260507061250 | 43 | 225 | 0.0 | 0.0 | 0.00 | 0.00 | 0.00 | 90 | 1012.9 |
| 20260507060748 | 43 | 225 | 0.0 | 0.0 | 0.00 | 0.00 | 0.00 | 87 | 1013.1 |
| 20260507060244 | 43 | 225 | 0.0 | 0.0 | 0.00 | 0.00 | 0.00 | 88 | 1013.4 |
| 20260507055741 | 43 | 225 | 0.0 | 0.0 | 0.00 | 0.00 | 0.00 | 88 | 1013.3 |
| 20260507055236 | 44 | 225 | 0.0 | 0.0 | 0.00 | 0.00 | 0.00 | 89 | 1013.4 |
| 20260507054733 | 44 | 225 | 0.0 | 0.0 | 0.00 | 0.00 | 0.00 | 87 | 1013.4 |
| 20260507054230 | 44 | 225 | 0.0 | 0.0 | 0.00 | 0.00 | 0.00 | 87 | 1013.4 |
| 20260507053727 | 44 | 225 | 0.0 | 0.0 | 0.00 | 0.00 | 0.00 | 87 | 1013.5 |
| 20260507053225 | 44 | 225 | 0.0 | 0.0 | 0.00 | 0.00 | 0.00 | 87 | 1013.8 |
| 20260507052724 | 44 | 225 | 0.0 | 0.0 | 0.00 | 0.00 | 0.00 | 86 | 1013.8 |
| 20260507052219 | 45 | 225 | 0.0 | 0.0 | 0.00 | 0.00 | 0.00 | 84 | 1013.9 |
| 20260507051717 | 45 | 225 | 0.0 | 0.0 | 0.00 | 0.00 | 0.00 | 84 | 1014.0 |
| 20260507051214 | 45 | 225 | 0.0 | 0.0 | 0.00 | 0.00 | 0.00 | 81 | 1014.0 |
| 20260507050710 | 45 | 225 | 0.0 | 0.0 | 0.00 | 0.00 | 0.00 | 73 | 1013.9 |
| 20260507050208 | 45 | 225 | 0.0 | 0.0 | 0.00 | 0.00 | 0.00 | 74 | 1013.8 |
| 20260507045704 | 45 | 225 | 0.0 | 0.0 | 0.00 | 0.00 | 0.00 | 74 | 1013.8 |
| 20260507045201 | 45 | 225 | 0.0 | 0.0 | 0.00 | 0.00 | 0.00 | 76 | 1013.8 |
| 20260507044658 | 46 | 225 | 0.0 | 0.0 | 0.00 | 0.00 | 0.00 | 84 | 1013.8 |
| 20260507044154 | 46 | 225 | 0.0 | 0.0 | 0.00 | 0.00 | 0.00 | 77 | 1013.8 |
| 20260507043651 | 46 | 225 | 0.0 | 0.0 | 0.00 | 0.00 | 0.00 | 74 | 1013.9 |
| 20260507043148 | 46 | 225 | 0.0 | 0.0 | 0.00 | 0.00 | 0.00 | 71 | 1014.0 |
| 20260507042644 | 46 | 225 | 0.0 | 0.0 | 0.00 | 0.00 | 0.00 | 70 | 1013.9 |
| 20260507042139 | 46 | 225 | 0.0 | 0.0 | 0.00 | 0.00 | 0.00 | 70 | 1013.8 |
| 20260507041637 | 46 | 225 | 0.0 | 0.0 | 0.00 | 0.00 | 0.00 | 73 | 1013.9 |
| 20260507041132 | 45 | 225 | 0.0 | 0.0 | 0.00 | 0.00 | 0.00 | 77 | 1013.6 |
| 20260507040630 | 45 | 224 | 0.0 | 0.0 | 0.00 | 0.00 | 0.00 | 84 | 1013.6 |
| 20260507040121 | 45 | 224 | 0.0 | 0.0 | 0.00 | 0.00 | 0.00 | 87 | 1013.6 |
| 20260507035617 | 45 | 224 | 0.0 | 0.0 | 0.00 | 0.63 | 0.63 | 88 | 1013.7 |
| 20260507035113 | 45 | 224 | 0.0 | 0.0 | 0.00 | 0.63 | 0.63 | 86 | 1013.8 |
| 20260507034610 | 45 | 224 | 0.0 | 0.0 | 0.00 | 0.63 | 0.63 | 85 | 1013.8 |
| 20260507034108 | 45 | 224 | 0.0 | 0.0 | 0.00 | 0.63 | 0.63 | 85 | 1013.4 |
| 20260507033606 | 45 | 224 | 0.0 | 0.0 | 0.00 | 0.63 | 0.63 | 84 | 1013.3 |
| 20260507033102 | 45 | 224 | 0.0 | 0.0 | 0.00 | 0.63 | 0.63 | 84 | 1013.5 |
| 20260507032559 | 45 | 224 | 0.0 | 0.0 | 0.00 | 0.63 | 0.63 | 83 | 1013.5 |
| 20260507032055 | 45 | 224 | 0.0 | 0.0 | 0.00 | 0.63 | 0.63 | 82 | 1013.3 |
| 20260507031552 | 46 | 224 | 0.0 | 0.0 | 0.00 | 0.63 | 0.63 | 84 | 1013.5 |
| 20260507031050 | 46 | 224 | 0.0 | 0.0 | 0.00 | 0.63 | 0.63 | 83 | 1013.8 |
| 20260507030546 | 46 | 224 | 0.0 | 0.0 | 0.00 | 0.63 | 0.63 | 83 | 1013.5 |
| 20260507030044 | 46 | 224 | 0.0 | 0.0 | 0.00 | 0.63 | 0.63 | 81 | 1013.5 |
| 20260507025541 | 46 | 224 | 0.0 | 0.0 | 0.00 | 0.63 | 0.63 | 80 | 1013.4 |
| 20260507025038 | 46 | 224 | 0.0 | 0.0 | 0.00 | 0.63 | 0.63 | 79 | 1013.1 |
| 20260507024535 | 47 | 224 | 0.0 | 0.0 | 0.00 | 0.63 | 0.63 | 80 | 1013.0 |
| 20260507024032 | 47 | 224 | 0.0 | 0.0 | 0.00 | 0.63 | 0.63 | 80 | 1013.3 |
| 20260507023528 | 47 | 224 | 0.0 | 0.0 | 0.00 | 0.63 | 0.63 | 75 | 1013.0 |
| 20260507023026 | 48 | 224 | 0.0 | 0.0 | 0.00 | 0.63 | 0.63 | 76 | 1013.2 |
| 20260507022522 | 48 | 224 | 0.0 | 0.0 | 0.00 | 0.63 | 0.63 | 69 | 1013.1 |
| 20260507022017 | 48 | 224 | 0.0 | 0.0 | 0.00 | 0.63 | 0.63 | 64 | 1013.1 |
| 20260507021514 | 48 | 224 | 0.0 | 0.0 | 0.00 | 0.63 | 0.63 | 64 | 1013.3 |
| 20260507021011 | 48 | 224 | 0.0 | 0.0 | 0.00 | 0.63 | 0.63 | 64 | 1013.0 |
| 20260507020508 | 49 | 225 | 0.0 | 0.0 | 0.00 | 0.63 | 0.63 | 64 | 1012.8 |
| 20260507020004 | 49 | 225 | 0.9 | 3.5 | 0.00 | 0.63 | 0.63 | 63 | 1012.8 |
| 20260507015503 | 49 | 226 | 0.0 | 1.7 | 0.00 | 0.63 | 0.63 | 63 | 1012.7 |
| 20260507015001 | 49 | 226 | 0.0 | 0.9 | 0.00 | 0.63 | 0.63 | 64 | 1012.6 |
| 20260507014457 | 49 | 229 | 0.0 | 0.0 | 0.00 | 0.63 | 0.63 | 66 | 1012.5 |
| 20260507013953 | 49 | 229 | 0.0 | 0.0 | 0.00 | 0.63 | 0.63 | 64 | 1012.5 |
| 20260507013449 | 49 | 229 | 0.0 | 0.0 | 0.00 | 0.63 | 0.63 | 63 | 1012.7 |
| 20260507012947 | 49 | 229 | 0.9 | 1.7 | 0.00 | 0.63 | 0.63 | 64 | 1012.6 |
| 20260507012443 | 49 | 236 | 0.0 | 0.9 | 0.00 | 0.63 | 0.63 | 63 | 1012.6 |
| 20260507011940 | 49 | 230 | 0.0 | 0.0 | 0.00 | 0.63 | 0.63 | 64 | 1012.7 |
| 20260507011437 | 49 | 241 | 0.0 | 1.7 | 0.00 | 0.63 | 0.63 | 64 | 1012.7 |
| 20260507010937 | 49 | 228 | 0.0 | 0.9 | 0.00 | 0.63 | 0.63 | 66 | 1012.8 |
| 20260507010432 | 50 | 227 | 0.9 | 1.7 | 0.00 | 0.63 | 0.63 | 61 | 1013.0 |
| 20260507005929 | 50 | 227 | 0.0 | 0.0 | 0.00 | 0.63 | 0.63 | 65 | 1013.3 |
| 20260507005426 | 50 | 231 | 0.0 | 0.9 | 0.00 | 0.63 | 0.63 | 64 | 1013.2 |
| 20260507004923 | 50 | 231 | 0.0 | 0.0 | 0.00 | 0.63 | 0.63 | 64 | 1013.1 |
| 20260507004420 | 50 | 232 | 0.0 | 0.0 | 0.00 | 0.63 | 0.63 | 63 | 1013.1 |
| 20260507003917 | 50 | 232 | 0.0 | 0.9 | 0.00 | 0.63 | 0.63 | 61 | 1012.9 |
| 20260507003412 | 50 | 241 | 0.0 | 0.0 | 0.00 | 0.63 | 0.63 | 65 | 1013.0 |
| 20260507002908 | 50 | 241 | 0.0 | 0.0 | 0.00 | 0.63 | 0.63 | 64 | 1013.2 |
| 20260507002404 | 50 | 225 | 0.0 | 0.9 | 0.00 | 0.63 | 0.63 | 63 | 1012.7 |
| 20260507001902 | 51 | 226 | 0.0 | 0.0 | 0.00 | 0.63 | 0.63 | 63 | 1013.0 |
| 20260507001358 | 51 | 224 | 0.9 | 1.7 | 0.00 | 0.63 | 0.63 | 62 | 1012.7 |
| 20260507000855 | 51 | 225 | 0.0 | 0.9 | 0.00 | 0.63 | 0.63 | 64 | 1012.7 |
| 20260507000350 | 51 | 235 | 0.0 | 0.0 | 0.00 | 0.63 | 0.63 | 66 | 1013.0 |
| 20260506235847 | 51 | 209 | 1.7 | 1.7 | 0.00 | 0.63 | 0.63 | 65 | 1012.9 |
| 20260506235344 | 51 | 227 | 0.0 | 0.0 | 0.00 | 0.63 | 0.63 | 66 | 1012.6 |
| 20260506234834 | 51 | 227 | 0.0 | 1.7 | 0.00 | 0.63 | 0.63 | 65 | 1012.4 |
| 20260506234333 | 51 | 228 | 0.9 | 0.9 | 0.00 | 0.63 | 0.63 | 64 | 1012.7 |
| 20260506233830 | 52 | 228 | 0.0 | 0.9 | 0.00 | 0.63 | 0.63 | 66 | 1012.5 |
| 20260506233325 | 52 | 226 | 0.0 | 0.0 | 0.00 | 0.63 | 0.63 | 64 | 1012.1 |
| 20260506232823 | 52 | 231 | 0.0 | 0.9 | 0.00 | 0.63 | 0.63 | 64 | 1012.2 |
| 20260506232318 | 52 | 228 | 0.0 | 0.0 | 0.00 | 0.63 | 0.63 | 66 | 1012.1 |
| 20260506231815 | 52 | 228 | 0.0 | 2.6 | 0.00 | 0.63 | 0.63 | 69 | 1012.2 |
| 20260506231313 | 52 | 226 | 0.0 | 0.0 | 0.00 | 0.63 | 0.63 | 68 | 1012.2 |
| 20260506230810 | 53 | 226 | 0.0 | 1.7 | 0.00 | 0.63 | 0.63 | 66 | 1012.0 |
| 20260506230307 | 53 | 224 | 0.0 | 0.9 | 0.00 | 0.63 | 0.63 | 69 | 1011.7 |
| 20260506225803 | 53 | 224 | 1.7 | 2.6 | 0.00 | 0.63 | 0.63 | 68 | 1011.7 |
| 20260506225300 | 53 | 225 | 0.9 | 3.5 | 0.00 | 0.63 | 0.63 | 67 | 1011.7 |
| 20260506224757 | 53 | 222 | 0.0 | 1.7 | 0.00 | 0.63 | 0.63 | 68 | 1011.6 |
| 20260506224254 | 53 | 224 | 0.0 | 0.0 | 0.00 | 0.63 | 0.63 | 69 | 1011.6 |
| 20260506223749 | 53 | 224 | 0.0 | 0.0 | 0.00 | 0.63 | 0.63 | 69 | 1011.7 |
| 20260506223240 | 53 | 224 | 0.0 | 0.0 | 0.00 | 0.63 | 0.63 | 68 | 1011.6 |
| 20260506222737 | 53 | 228 | 1.7 | 1.7 | 0.00 | 0.63 | 0.63 | 68 | 1011.5 |
| 20260506222232 | 53 | 228 | 0.0 | 0.9 | 0.00 | 0.63 | 0.63 | 70 | 1011.5 |
| 20260506221730 | 53 | 226 | 0.0 | 1.7 | 0.00 | 0.63 | 0.63 | 70 | 1011.5 |
| 20260506221228 | 54 | 194 | 2.6 | 6.1 | 0.00 | 0.63 | 0.63 | 66 | 1011.5 |
| 20260506220725 | 54 | 225 | 0.0 | 0.0 | 0.00 | 0.63 | 0.63 | 72 | 1011.2 |
| 20260506220219 | 54 | 199 | 2.6 | 3.5 | 0.00 | 0.63 | 0.63 | 70 | 1011.0 |
| 20260506215717 | 53 | 219 | 0.9 | 1.7 | 0.00 | 0.63 | 0.63 | 72 | 1011.3 |
| 20260506215212 | 53 | 233 | 0.0 | 0.9 | 0.00 | 0.63 | 0.63 | 71 | 1011.0 |
| 20260506214709 | 53 | 228 | 0.0 | 1.7 | 0.00 | 0.63 | 0.63 | 73 | 1011.2 |
| 20260506214206 | 53 | 219 | 0.9 | 7.0 | 0.00 | 0.63 | 0.63 | 72 | 1011.0 |
| 20260506213705 | 53 | 217 | 0.0 | 2.6 | 0.00 | 0.63 | 0.63 | 74 | 1011.1 |
| 20260506213202 | 53 | 217 | 0.0 | 2.6 | 0.00 | 0.63 | 0.63 | 74 | 1011.1 |
| 20260506212659 | 53 | 235 | 0.0 | 5.2 | 0.00 | 0.63 | 0.63 | 72 | 1011.1 |
| 20260506212154 | 54 | 201 | 1.7 | 5.2 | 0.00 | 0.63 | 0.63 | 71 | 1011.1 |